Hourly Data Report for July 01, 2009

PITT MEADOWS CS
BRITISH COLUMBIA

49°12'29.964" N
122°41'24.076" W
5.00 m
1106178
71775
WMM

Download Data

Hourly Data (July 2009)
Hourly Data Report for July 1, 2009
TIME
LST
Temp Definition
°C
Dew Point Definition
°C
Rel Hum Definition
%
Precip. Amount Definition
mm

Wind Dir Definition
10's deg

Wind Spd Definition
km/h
Visibility Definition
km
Stn Press Definition
kPa
Hmdx Definition


Wind Chill Definition


Weather Definition


00:00 11.7 8.7 82   13 4   101.89     LegendNANA
01:00 11.1 8.2 82   33 2   101.90     LegendNANA
02:00 9.6 7.3 86   30 2   101.92     LegendNANA
03:00 9.1 7.7 91     0   101.93     LegendNANA
04:00 8.3 7.2 93     0   101.95     LegendNANA
05:00 8.9 7.9 93     0   101.97     LegendNANA
06:00 12.2 9.9 86   11 2   101.99     LegendNANA
07:00 14.7 9.6 71     0   101.99     LegendNANA
08:00 16.2 9.5 64   29 2   101.99     LegendNANA
09:00 18.0 9.8 59   18 4   101.96     LegendNANA
10:00 20.2 10.0 52   21 4   101.91     LegendNANA
11:00 21.8 8.4 42   24 4   101.87     LegendNANA
12:00 23.9 9.0 39   27 9   101.84 25   LegendNANA
13:00 24.1 10.0 41   27 11   101.80 25   LegendNANA
14:00 23.9 8.1 36   29 15   101.75     LegendNANA
15:00 25.8 8.6 34   28 13   101.69 26   LegendNANA
16:00 25.2 4.8 27   27 17   101.64     LegendNANA
17:00 25.0 4.3 26   28 15   101.60     LegendNANA
18:00 23.5 4.7 29   25 11   101.56     LegendNANA
19:00 23.3 5.0 30   24 6   101.53     LegendNANA
20:00 20.7 5.0 36   23 6   101.51     LegendNANA
21:00 17.4 6.9 50     0   101.53     LegendNANA
22:00 14.7 8.5 66     0   101.53     LegendNANA
23:00 13.2 9.4 78     0   101.55     LegendNANA

Notes on Data Quality.

Legend

  • E = Estimated
  • M = Missing
  • NA = Not Available*
  • [empty] = Indicates an unobserved value
Date modified: